Location: Birdton
(46.1166°N, 66.8166°W)
Time: 22:31:35
(UTC-03:00)

Daily predictions for brighter satellites

Satellite Brightness Start Highest point End
(mag) Time Altitude Azimuth Time Altitude Azimuth Time Altitude Azimuth
Cosmos 2082 4.0 20:36:46 10° NNW 20:42:18 53° ENE 20:47:47 10° SE
Cosmos 2297 Rocket 2.7 20:39:06 10° NNW 20:44:32 44° NE 20:49:55 10° SE
Cosmos 1821 Rocket 4.0 20:49:09 10° S 20:55:15 82° E 21:01:22 10° N
Cosmos 1570 Rocket 4.1 20:50:15 10° S 20:55:25 56° ESE 21:00:35 10° NNE
Meteor 2-16 Rocket 4.4 20:49:54 10° S 20:55:55 68° E 21:01:57 10° NNE
CZ-4 DEB 3.8 20:54:27 10° SE 20:57:13 29° ENE 21:00:00 10° N
Cosmos 1605 Rocket 4.2 20:52:08 10° SSE 20:58:14 52° E 21:04:18 10° NNE
Envisat 3.9 20:54:46 10° SE 20:59:12 31° ENE 21:03:39 10° N
Helios 1B rocket 4.2 21:01:45 10° N 21:05:35 38° WNW 21:09:24 10° SW
EO 1 Delta rocket 3.9 21:04:33 10° NNE 21:09:12 74° E 21:14:19 10° S
Iridium 4 Rocket 3.7 21:06:15 10° N 21:11:20 48° E 21:15:56 10° SSE
DELTA 2 R/B (1) 4.2 21:10:04 10° WSW 21:15:17 42° S 21:19:39 14° ESE
YAOGAN 6 4.5 21:15:06 13° E 21:16:45 16° ENE 21:19:07 10° NNE
YAOGAN 11 4.2 21:13:24 10° SSE 21:17:52 62° ENE 21:22:17 10° N
Cosmos 1743 4.4 21:18:09 15° ESE 21:19:25 17° E 21:22:02 10° NE
Okean 2 4.4 21:15:40 10° NNW 21:19:44 50° W 21:23:44 10° SSW
Cosmos 1975 3.0 21:19:04 10° S 21:23:03 53° E 21:27:05 10° NNE
Cosmos 2123 Rocket 4.2 21:18:05 10° NNW 21:24:16 75° W 21:30:24 10° S
Cosmos 1697 Rocket 3.4 21:21:11 10° SSE 21:26:02 31° ESE 21:30:54 10° NE
NOSS 2-1 (D) 4.2 21:22:19 10° SW 21:26:12 57° NW 21:30:49 10° NNE
NOSS 2-1 (C) 4.2 21:23:20 10° SW 21:27:14 57° NW 21:31:51 10° NNE
Cosmos 2278 3.7 21:22:24 10° SSW 21:28:05 81° ESE 21:33:48 10° NNE
Lacrosse 5 rocket 1.3 21:27:34 10° NW 21:31:16 64° SW 21:33:40 19° SE
H-2A R/B 2.5 21:29:22 18° SE 21:31:59 40° ENE 21:35:52 10° N
ERS-1 Rocket 2.9 21:28:02 10° SSE 21:33:03 78° ENE 21:38:05 10° NNW
Cosmos 1626 Rocket 3.5 21:29:11 10° N 21:33:38 89° WSW 21:38:00 10° S
ALOS 3.7 21:29:26 10° SSW 21:33:47 37° W 21:38:08 10° NNW
Cosmos 1898 Rocket 3.6 21:29:34 10° NNW 21:34:52 63° ENE 21:38:49 18° SE
Meteor 1-12 Rocket 4.2 21:31:56 10° S 21:37:40 82° E 21:43:33 10° NNE
deb Chang Zheng 4 4.2 21:33:46 10° NNE 21:37:52 35° E 21:40:52 16° SSE
Cosmos 1455 Rocket 4.0 21:36:16 10° SSW 21:40:28 50° WNW 21:44:44 10° N
Cosmos 1461 4.0 21:37:34 10° NW 21:41:22 38° WSW 21:44:43 12° S
Cosmos 2369 3.7 21:35:42 10° SSW 21:41:23 90° ENE 21:47:07 10° NNE
Cosmos 1602 Rocket 3.8 21:37:32 10° NNW 21:42:01 74° W 21:46:25 10° S
Cosmos 1459 Rocket 4.2 21:37:20 10° SSE 21:43:03 47° E 21:48:51 10° NNE
Cosmos 1980 Rocket 3.0 21:45:16 19° SSE 21:48:09 28° ESE 21:52:57 10° NE
SL-24 R/B - RUBIN 2 4.4 21:43:02 10° SSW 21:48:47 57° ESE 21:55:10 10° NE
ARGOS 4.0 21:49:20 23° ESE 21:51:52 34° ENE 21:56:41 10° N
Cosmos 1939 Rocket 3.1 21:51:41 16° S 21:54:58 76° WSW 21:59:10 10° NNW
Cosmos 1153 Rocket 4.5 21:48:47 10° S 21:55:00 86° W 22:01:11 10° N
Cosmos 468 Rocket 4.0 21:51:58 10° S 21:56:58 57° ESE 22:02:00 10° NNE
Lacrosse 5 1.9 21:52:36 10° NW 21:57:41 78° NE 22:00:15 30° ESE
USA 215 3.6 21:57:32 20° E 22:02:09 57° NNE 22:08:32 10° NW
Cosmos 2084 3.4 22:00:01 10° NW 22:04:02 71° SW 22:05:45 34° SSE
Meteor 1-21 4.4 21:58:44 10° N 22:04:27 60° ENE 22:07:31 28° SE
SPOT 5 2.9 22:02:06 25° SSE 22:05:04 75° ENE 22:09:55 10° N
Cosmos 1814 Rocket 4.1 21:59:53 10° S 22:05:06 57° ESE 22:10:19 10° NNE
Cosmos 841 Rocket 4.3 22:05:03 29° ESE 22:05:28 30° E 22:09:58 10° NE
Cosmos 2058 Rocket 4.0 22:07:22 30° E 22:07:30 30° E 22:11:26 10° NNE
Cosmos 1802 Rocket 4.0 22:02:58 14° S 22:08:33 64° E 22:14:55 10° NNE
MetOp-B 4.1 22:07:59 28° SSE 22:10:54 74° ENE 22:16:16 10° N
Cosmos 1666 3.9 22:12:19 26° ENE 22:12:19 26° ENE 22:14:46 10° NNE
Cosmos 2227 Rocket 3.8 22:07:49 10° NW 22:12:42 31° WSW 22:17:34 10° SSW
Cosmos 2263 Rocket 3.8 22:10:11 10° N 22:14:24 21° NE 22:16:34 17° ENE
Tiangong 1 2.0 22:14:07 10° WSW 22:16:25 35° SW 22:16:25 35° SW
Cosmos 1606 Rocket 3.6 22:17:36 43° SSE 22:18:47 59° E 22:23:09 10° NNE
Cosmos 2322 Rocket 3.8 22:21:37 17° ENE 22:21:37 17° ENE 22:23:41 10° NE
RESURS DK-1 2.3 22:17:07 10° NNW 22:21:16 78° WSW 22:22:21 48° SSE
Cosmos 1500 4.1 22:18:34 10° SSW 22:22:12 48° WNW 22:25:53 10° N
Cosmos 1656 3.8 22:17:07 10° SSW 22:22:44 75° WNW 22:28:18 10° NNE
BREEZE-M TANK 3.4 22:15:10 10° WNW 22:23:51 44° SW 22:24:55 36° S
Cosmos 2016 Rocket 3.9 22:23:05 23° S 22:27:00 73° E 22:33:12 10° NNE
SL-19 R/B 4.2 22:21:41 10° NNE 22:27:09 56° ESE 22:28:54 39° SSE
Cosmos 2297 Rocket 3.7 22:23:28 10° NW 22:28:24 32° WSW 22:32:48 12° SSW
Landsat 7 4.4 22:28:52 38° E 22:29:30 40° ENE 22:33:57 10° N
Meteor 2-9 Rocket 4.4 22:28:35 42° SE 22:29:42 48° E 22:34:54 10° NNE
SL-08 RB Rocket 3.9 22:29:16 48° ESE 22:30:06 56° ENE 22:34:40 10° N
PSLV R/B 3.5 22:31:35 62° NW 22:31:35 62° NW 22:34:17 10° NNW
Cosmos 2227 4.2 22:25:42 10° NNW 22:31:30 78° ENE 22:33:26 43° SE
Cosmos 1340 2.8 22:30:37 10° NNW 22:34:24 68° W 22:34:56 58° SSW
CZ-4 R/B 4.4 22:31:22 10° NNE 22:35:15 38° E 22:35:15 38° E
Envisat 4.3 22:34:13 14° SSW 22:38:08 37° W 22:42:50 10° NNW
CZ-4 SHROUD 3.9 22:38:48 53° NW 22:38:48 53° NW 22:41:21 10° NNW
Cosmos 405 Rocket 4.2 22:35:21 10° N 22:37:44 25° NE 22:37:44 25° NE
H-2A R/B 2.4 22:39:12 42° E 22:39:47 44° ENE 22:44:29 10° N
Cosmos 2173 Rocket 4.3 22:33:34 10° SSW 22:39:55 70° W 22:46:16 10° N
Cosmos 1937 Rocket 4.1 22:36:18 10° NNW 22:41:23 51° WSW 22:43:40 30° SSW
Cosmos 1726 Rocket 3.4 22:42:19 61° S 22:43:05 90° WSW 22:47:31 10° N
ASTEX 1 3.5 22:39:09 10° N 22:44:11 74° W 22:46:25 33° SSW
Terra 2.4 22:44:43 40° ENE 22:44:52 40° ENE 22:49:19 10° N
Cosmos 2098 Rocket 4.0 22:45:59 31° S 22:49:37 81° E 22:55:32 10° N
YAOGAN 6 3.6 22:49:35 39° WSW 22:50:01 40° W 22:53:33 10° NNW
GEOS 3 Rocket 4.0 22:45:33 10° NE 22:49:23 42° E 22:49:23 42° E
Tsikada Rocket 4.0 22:47:00 10° N 22:53:29 85° E 22:55:35 46° SSE
Cosmos 1864 Rocket 4.3 22:52:34 45° S 22:54:36 78° E 23:00:44 10° N
Cosmos 1743 4.1 22:53:16 25° SW 22:54:58 38° WNW 22:58:40 10° N
SPOT 1/Viking Rocket 3.8 22:57:13 45° SSW 22:58:41 63° WSW 23:03:53 10° NNW
Spot 4 4.5 23:02:41 43° ENE 23:02:41 43° ENE 23:06:56 10° N
CZ-4B R/B 3.2 22:57:58 10° NNE 23:02:44 88° ESE 23:03:04 78° S
H-2A R/B 4.2 23:06:31 15° SW 23:08:11 19° W 23:11:13 10° NW
Cosmos 836 Rocket 4.4 23:08:22 74° E 23:08:22 74° E 23:13:37 10° NNE
Cosmos 1697 Rocket 3.7 23:04:23 10° SW 23:09:48 46° WNW 23:15:15 10° NNE
Cosmos 1842 4.3 23:10:05 10° NNW 23:13:32 40° W 23:13:32 40° W
SL-16 R/B 2.8 23:15:31 42° ENE 23:15:31 42° ENE 23:19:41 10° NE
GP-B 4.0 23:13:13 10° N 23:16:20 40° NE 23:16:20 40° NE
Cosmos 2346 Rocket 4.3 23:15:40 10° N 23:21:57 77° E 23:22:33 70° SE
Cosmos 1125 Rocket 3.5 23:17:59 10° NNW 23:23:11 71° WSW 23:23:14 71° WSW
Cosmos 1725 Rocket 4.3 23:22:45 37° SW 23:25:13 63° WNW 23:31:26 10° N
Cosmos 1763 Rocket 4.2 23:24:18 31° WSW 23:26:25 50° WNW 23:31:22 10° NNE
Cosmos 1707 4.5 23:24:37 10° N 23:26:42 28° NNE 23:26:42 28° NNE
Cosmos 2228 3.8 23:29:02 50° NW 23:29:02 50° NW 23:32:40 10° N
IGS 5A 4.3 23:30:03 48° NNW 23:30:03 48° NNW 23:33:06 10° NNW
Meteor 2-5 Rocket 3.7 23:23:04 10° N 23:29:01 74° ENE 23:29:09 74° E
Cosmos 1980 Rocket 3.0 23:26:51 12° SW 23:31:53 49° WNW 23:37:25 10° NNE
ARGOS 4.2 23:30:52 33° SW 23:32:03 37° W 23:37:01 10° NNW
Cosmos 2360 Rocket 4.0 23:35:19 19° ENE 23:35:19 19° ENE 23:37:17 10° NE
Lacrosse 5 3.6 23:36:19 10° WNW 23:39:26 21° WSW 23:39:26 21° WSW
BREEZE-M DEB (TANK) 4.2 23:13:25 10° WNW 23:41:49 75° SW 23:43:29 59° SSE
USA 215 3.4 23:44:53 56° SW 23:45:11 56° SW 23:51:37 10° WNW
DMSP B5D2-2 4.2 23:41:41 10° NNE 23:46:32 73° NNW 23:46:32 73° NNW
Cosmos 2233 Rocket 4.2 23:51:56 55° WSW 23:52:56 62° WNW 23:59:08 10° N
